FW8702 Weather Reports


Display with metric or nautical units.
time (UTC)temp
F
wind
direction
speed
MPH
gust
MPH
rain 1hr
in
rain 24hr
in
rain mn
in
humidity
%
barometer
mb
20260507064520 55 36 3.0 12.0 0.00 1.01 0.04 83 1015.1
20260507063046 54 85 0.0 3.0 0.00 1.01 0.04 83 1015.1
20260507061525 55 61 1.0 8.0 0.00 1.01 0.04 83 1015.0
20260507060003 54 98 0.0 4.0 0.00 1.02 0.04 84 1014.9
20260507054529 53 32 0.0 5.0 0.00 1.02 0.04 86 1014.7
20260507053059 52 298 0.0 1.0 0.00 1.02 0.04 87 1014.7
20260507051504 52 42 1.0 7.0 0.00 1.02 0.04 86 1014.6
20260507050029 52 296 0.0 2.0 0.00 1.30 0.04 86 1014.5
20260507044541 52 79 0.0 2.0 0.00 1.30 0.04 85 1014.3
20260507043041 52 71 0.0 3.0 0.00 1.30 0.04 86 1014.1
20260507041605 52 331 0.0 1.0 0.00 1.30 0.04 86 1014.2
20260507040103 52 8 0.0 5.0 0.00 1.30 0.04 85 1013.9
20260507034526 52 3 0.0 6.0 0.00 1.31 0.04 85 1014.0
20260507033039 53 29 0.0 7.0 0.00 1.31 0.04 85 1013.9
20260507031554 53 62 0.0 10.0 0.00 1.31 0.04 86 1013.7
20260507030105 52 73 0.0 5.0 0.00 1.31 0.04 87 1013.8
20260507024520 52 42 0.0 0.0 0.00 1.33 0.04 87 1013.9
20260507023050 53 40 0.0 3.0 0.00 1.33 0.04 86 1013.8
20260507021515 53 17 0.0 0.0 0.00 1.33 0.04 86 1013.9
20260507020107 53 296 0.0 1.0 0.00 1.33 0.04 86 1014.0
20260507014510 53 55 0.0 5.0 0.00 1.41 0.04 87 1013.7
20260507013022 53 13 0.0 0.0 0.00 1.41 0.04 88 1013.7
20260507011535 53 61 0.0 2.0 0.00 1.41 0.04 87 1013.6
20260507010033 53 84 0.0 2.0 0.01 1.43 0.04 88 1013.6
20260507004548 53 57 0.0 2.0 0.02 1.43 0.04 87 1013.6
20260507003006 53 88 0.0 10.0 0.02 1.43 0.04 87 1013.5
20260507001535 53 68 0.0 10.0 0.02 1.43 0.04 87 1013.5
20260507000033 53 52 4.0 16.0 0.02 1.43 0.03 86 1013.4
20260506234545 54 80 0.0 6.0 0.01 1.42 0.02 85 1013.5
20260506233008 54 59 0.0 9.0 0.01 1.42 0.02 86 1013.5
20260506231520 53 86 0.0 9.0 0.02 1.42 0.02 87 1013.3
20260506230021 54 48 0.0 12.0 0.01 1.41 0.01 88 1013.3
20260506224537 54 77 1.0 11.0 0.04 1.41 0.01 89 1013.3
20260506223000 54 44 3.0 12.0 0.06 1.41 0.01 88 1013.2
20260506221529 53 67 0.0 5.0 0.05 1.40 0.00 89 1013.4
20260506220027 54 116 0.0 5.0 0.05 1.40 1.40 88 1013.2
20260506214534 54 96 0.0 3.0 0.04 1.37 1.37 87 1013.1
20260506213046 54 84 1.0 6.0 0.04 1.35 1.35 86 1013.3
20260506211512 54 54 0.0 9.0 0.05 1.35 1.35 86 1013.0
20260506210009 54 61 0.0 6.0 0.05 1.40 1.35 86 1012.9
20260506204534 55 97 0.0 2.0 0.03 1.38 1.33 86 1012.8
20260506203049 55 179 0.0 0.0 0.01 1.36 1.31 86 1012.8
20260506201508 55 87 0.0 1.0 0.00 1.35 1.30 87 1012.8
20260506200025 54 51 0.0 2.0 0.00 1.44 1.30 90 1012.6
20260506194552 54 291 0.0 0.0 0.00 1.44 1.30 91 1012.4
20260506193059 54 291 0.0 0.0 0.00 1.44 1.30 90 1012.2
20260506191522 55 291 0.0 0.0 0.00 1.44 1.30 89 1011.9
20260506190032 55 37 0.0 0.0 0.00 1.50 1.30 88 1011.6
20260506184604 55 37 0.0 0.0 0.03 1.50 1.30 87 1011.5
20260506183010 56 105 1.0 8.0 0.08 1.50 1.30 85 1010.8
20260506181527 56 111 1.0 10.0 0.24 1.50 1.30 85 1010.8
20260506180028 55 83 0.0 10.0 0.24 1.56 1.30 86 1010.4
20260506174539 55 84 0.0 1.0 0.21 1.53 1.27 85 1010.6
20260506173136 57 75 0.0 5.0 0.17 1.49 1.23 81 1010.3
20260506171600 59 105 0.0 11.0 0.00 1.32 1.06 74 1010.0
20260506170011 61 88 0.0 2.0 0.00 1.36 1.06 73 1009.8
20260506164526 61 97 0.0 7.0 0.00 1.36 1.06 72 1009.8
20260506163102 61 77 0.0 9.0 0.00 1.36 1.06 72 1009.6
20260506161513 61 104 0.0 3.0 0.00 1.36 1.06 72 1009.3
20260506160016 60 124 2.0 12.0 0.00 1.38 1.06 74 1009.1
20260506154536 60 106 0.0 13.0 0.00 1.38 1.06 75 1009.5
20260506153047 60 81 0.0 8.0 0.00 1.38 1.06 76 1009.6
20260506151507 60 76 0.0 7.0 0.00 1.38 1.06 77 1010.0
20260506150024 60 91 0.0 10.0 0.00 1.38 1.06 77 1009.9
20260506144554 60 57 2.0 9.0 0.00 1.38 1.06 79 1009.9
20260506143020 60 51 7.0 16.0 0.00 1.38 1.06 80 1010.1
20260506141533 60 99 0.0 12.0 0.00 1.38 1.06 80 1010.1
20260506140044 60 88 0.0 4.0 0.00 1.38 1.06 81 1010.1
20260506134555 59 69 0.0 2.0 0.00 1.38 1.06 82 1010.1
20260506133021 56 53 0.0 5.0 0.00 1.38 1.06 85 1010.6
20260506131552 55 38 0.0 5.0 0.00 1.38 1.06 87 1010.7
20260506130034 54 46 0.0 3.0 0.17 1.39 1.06 91 1010.6
20260506124547 53 13 0.0 0.0 0.44 1.39 1.06 94 1010.5
20260506123016 51 34 0.0 2.0 0.47 1.39 1.06 93 1010.6
20260506121543 50 17 0.0 5.0 0.47 1.39 1.06 92 1010.8
20260506120106 50 321 0.0 6.0 0.30 1.23 0.89 91 1010.8
20260506114534 51 308 2.0 22.0 0.08 0.96 0.62 89 1010.2
20260506113049 53 28 3.0 16.0 0.16 0.93 0.59 86 1010.0
20260506111518 55 22 3.0 10.0 0.16 0.93 0.59 88 1009.9
20260506110033 57 202 0.0 10.0 0.16 0.95 0.59 90 1009.6
20260506104547 58 128 1.0 11.0 0.11 0.90 0.54 88 1009.4
20260506103016 58 151 2.0 12.0 0.00 0.79 0.43 85 1009.5
20260506101539 59 109 2.0 13.0 0.00 0.79 0.43 85 1009.8
20260506100051 60 142 1.0 12.0 0.00 0.80 0.43 84 1009.7
20260506094515 61 126 2.0 14.0 0.00 0.80 0.43 85 1009.4
20260506093045 60 126 2.0 18.0 0.00 0.80 0.43 86 1009.2
20260506091538 59 133 2.0 18.0 0.00 0.80 0.43 88 1009.2
20260506090058 57 143 1.0 11.0 0.00 0.81 0.43 90 1009.1
20260506084511 57 170 3.0 17.0 0.00 0.81 0.43 93 1009.2
20260506083040 57 136 1.0 13.0 0.00 0.81 0.43 95 1009.5
20260506081604 57 145 0.0 2.0 0.00 0.81 0.43 97 1009.5
20260506073032 56 177 0.0 0.0 0.00 0.89 0.43 97 1009.9
20260506071512 56 166 0.0 0.0 0.00 0.89 0.43 97 1009.9